| time (UTC) | temp F | wind direction | speed MPH | gust MPH | rain 1hr in | rain 24hr in | rain mn in | humidity % | barometer mb |
| 20260506002549 | 71 | 301 | 9.0 | 14.0 | 0.00 | 0.20 | 0.20 | 31 | 1011.4 |
| 20260506002045 | 71 | 279 | 8.0 | 11.0 | 0.00 | 0.20 | 0.20 | 31 | 1011.3 |
| 20260506001541 | 73 | 299 | 7.0 | 9.0 | 0.00 | 0.20 | 0.20 | 30 | 1011.4 |
| 20260506001039 | 72 | 239 | 7.0 | 10.0 | 0.00 | 0.20 | 0.20 | 28 | 1011.4 |
| 20260506000536 | 71 | 237 | 10.0 | 14.0 | 0.00 | 0.20 | 0.20 | 28 | 1011.4 |
| 20260506000034 | 72 | 235 | 5.0 | 10.0 | 0.00 | 0.20 | 0.20 | 30 | 1011.3 |
| 20260505235531 | 72 | 244 | 11.0 | 14.0 | 0.00 | 0.20 | 0.20 | 30 | 1011.3 |
| 20260505235028 | 71 | 278 | 6.0 | 8.0 | 0.00 | 0.20 | 0.20 | 29 | 1011.2 |
| 20260505234525 | 72 | 275 | 7.0 | 10.0 | 0.00 | 0.20 | 0.20 | 30 | 1011.3 |
| 20260505234022 | 73 | 251 | 4.0 | 11.0 | 0.00 | 0.20 | 0.20 | 29 | 1011.1 |
| 20260505233519 | 73 | 237 | 8.0 | 15.0 | 0.00 | 0.20 | 0.20 | 28 | 1011.2 |
| 20260505233017 | 74 | 271 | 10.0 | 14.0 | 0.00 | 0.20 | 0.20 | 28 | 1011.3 |
| 20260505232514 | 73 | 267 | 6.0 | 14.0 | 0.00 | 0.20 | 0.20 | 27 | 1011.2 |
| 20260505232012 | 74 | 294 | 14.0 | 18.0 | 0.00 | 0.20 | 0.20 | 28 | 1011.2 |
| 20260505231508 | 73 | 247 | 5.0 | 11.0 | 0.00 | 0.20 | 0.20 | 32 | 1011.3 |
| 20260505231007 | 72 | 214 | 7.0 | 11.0 | 0.00 | 0.20 | 0.20 | 32 | 1011.1 |
| 20260505230504 | 70 | 244 | 6.0 | 14.0 | 0.00 | 0.20 | 0.20 | 34 | 1011.4 |
| 20260505230000 | 70 | 281 | 3.0 | 9.0 | 0.00 | 0.20 | 0.20 | 34 | 1011.3 |
| 20260505225457 | 70 | 229 | 5.0 | 14.0 | 0.00 | 0.20 | 0.20 | 34 | 1011.5 |
| 20260505224953 | 70 | 266 | 7.0 | 13.0 | 0.00 | 0.20 | 0.20 | 34 | 1011.4 |
| 20260505224450 | 71 | 250 | 7.0 | 11.0 | 0.00 | 0.20 | 0.20 | 35 | 1011.5 |
| 20260505223948 | 71 | 209 | 5.0 | 11.0 | 0.00 | 0.20 | 0.20 | 35 | 1011.5 |
| 20260505223444 | 70 | 272 | 8.0 | 18.0 | 0.00 | 0.20 | 0.20 | 34 | 1011.5 |
| 20260505222941 | 71 | 273 | 5.0 | 10.0 | 0.00 | 0.20 | 0.20 | 35 | 1011.7 |
| 20260505222437 | 71 | 264 | 4.0 | 11.0 | 0.00 | 0.20 | 0.20 | 34 | 1011.6 |
| 20260505221933 | 71 | 248 | 5.0 | 10.0 | 0.00 | 0.20 | 0.20 | 34 | 1011.6 |
| 20260505221431 | 71 | 276 | 2.0 | 8.0 | 0.00 | 0.20 | 0.20 | 34 | 1011.7 |
| 20260505220928 | 72 | 285 | 7.0 | 11.0 | 0.00 | 0.20 | 0.20 | 33 | 1011.9 |
| 20260505220425 | 73 | 251 | 5.0 | 9.0 | 0.00 | 0.20 | 0.20 | 33 | 1011.7 |
| 20260505215922 | 72 | 274 | 6.0 | 10.0 | 0.00 | 0.20 | 0.20 | 33 | 1012.0 |
| 20260505215420 | 73 | 235 | 10.0 | 15.0 | 0.00 | 0.20 | 0.20 | 32 | 1012.0 |
| 20260505214918 | 73 | 344 | 7.0 | 16.0 | 0.00 | 0.20 | 0.20 | 33 | 1012.3 |
| 20260505214415 | 73 | 245 | 9.0 | 11.0 | 0.00 | 0.20 | 0.20 | 31 | 1012.1 |
| 20260505213912 | 73 | 242 | 11.0 | 13.0 | 0.00 | 0.20 | 0.20 | 31 | 1012.2 |
| 20260505213410 | 73 | 242 | 10.0 | 15.0 | 0.00 | 0.20 | 0.20 | 31 | 1012.3 |
| 20260505212906 | 72 | 236 | 7.0 | 16.0 | 0.00 | 0.20 | 0.20 | 30 | 1012.4 |
| 20260505212403 | 74 | 207 | 7.0 | 16.0 | 0.00 | 0.20 | 0.20 | 31 | 1012.4 |
| 20260505211859 | 73 | 279 | 9.0 | 20.0 | 0.00 | 0.20 | 0.20 | 30 | 1012.3 |
| 20260505211357 | 73 | 243 | 9.0 | 22.0 | 0.00 | 0.20 | 0.20 | 31 | 1012.3 |
| 20260505210853 | 73 | 259 | 11.0 | 21.0 | 0.00 | 0.20 | 0.20 | 30 | 1012.5 |
| 20260505210350 | 73 | 267 | 9.0 | 16.0 | 0.00 | 0.20 | 0.20 | 31 | 1012.6 |
| 20260505205847 | 73 | 238 | 7.0 | 16.0 | 0.00 | 0.20 | 0.20 | 32 | 1012.6 |
| 20260505205345 | 72 | 239 | 8.0 | 18.0 | 0.00 | 0.20 | 0.20 | 35 | 1012.6 |
| 20260505204842 | 72 | 262 | 10.0 | 14.0 | 0.00 | 0.20 | 0.20 | 35 | 1012.6 |
| 20260505204340 | 72 | 192 | 11.0 | 15.0 | 0.00 | 0.20 | 0.20 | 35 | 1012.6 |
| 20260505203837 | 71 | 350 | 5.0 | 10.0 | 0.00 | 0.20 | 0.20 | 34 | 1012.6 |
| 20260505203333 | 71 | 261 | 8.0 | 14.0 | 0.00 | 0.20 | 0.20 | 35 | 1012.8 |
| 20260505202830 | 72 | 256 | 11.0 | 16.0 | 0.00 | 0.20 | 0.20 | 35 | 1012.7 |
| 20260505202326 | 71 | 279 | 8.0 | 13.0 | 0.00 | 0.20 | 0.20 | 38 | 1012.7 |
| 20260505201823 | 73 | 203 | 8.0 | 20.0 | 0.00 | 0.20 | 0.20 | 39 | 1012.9 |
| 20260505201320 | 74 | 305 | 7.0 | 15.0 | 0.00 | 0.20 | 0.20 | 40 | 1012.8 |
| 20260505200818 | 72 | 244 | 10.0 | 13.0 | 0.00 | 0.20 | 0.20 | 41 | 1012.9 |
| 20260505200315 | 71 | 244 | 6.0 | 11.0 | 0.00 | 0.20 | 0.20 | 48 | 1012.8 |
| 20260505195810 | 69 | 315 | 5.0 | 8.0 | 0.00 | 0.20 | 0.20 | 49 | 1012.6 |
| 20260505195308 | 69 | 312 | 2.0 | 6.0 | 0.00 | 0.20 | 0.20 | 53 | 1013.1 |
| 20260505194805 | 69 | 297 | 1.0 | 6.0 | 0.00 | 0.20 | 0.20 | 54 | 1013.1 |
| 20260505194302 | 68 | 302 | 4.0 | 7.0 | 0.00 | 0.20 | 0.20 | 54 | 1013.1 |
| 20260505193757 | 68 | 296 | 4.0 | 6.0 | 0.00 | 0.20 | 0.20 | 54 | 1012.9 |
| 20260505193255 | 68 | 1 | 3.0 | 8.0 | 0.00 | 0.20 | 0.20 | 53 | 1012.9 |
| 20260505192753 | 67 | 323 | 2.0 | 6.0 | 0.00 | 0.20 | 0.20 | 55 | 1013.2 |
| 20260505192250 | 68 | 280 | 4.0 | 6.0 | 0.00 | 0.20 | 0.20 | 55 | 1013.3 |
| 20260505191748 | 69 | 311 | 4.0 | 8.0 | 0.00 | 0.20 | 0.20 | 54 | 1013.2 |
| 20260505191247 | 68 | 246 | 8.0 | 9.0 | 0.00 | 0.20 | 0.20 | 54 | 1013.3 |
| 20260505190742 | 67 | 223 | 4.0 | 6.0 | 0.00 | 0.20 | 0.20 | 55 | 1013.3 |
| 20260505190237 | 68 | 284 | 2.0 | 5.0 | 0.00 | 0.20 | 0.20 | 56 | 1013.2 |
| 20260505185734 | 67 | 261 | 2.0 | 5.0 | 0.00 | 0.20 | 0.20 | 56 | 1013.5 |
| 20260505185231 | 66 | 2 | 1.0 | 5.0 | 0.00 | 0.20 | 0.20 | 58 | 1013.8 |
| 20260505184726 | 65 | 238 | 3.0 | 5.0 | 0.00 | 0.20 | 0.20 | 59 | 1013.8 |
| 20260505184224 | 66 | 184 | 6.0 | 7.0 | 0.00 | 0.20 | 0.20 | 59 | 1013.8 |
| 20260505183720 | 67 | 250 | 5.0 | 6.0 | 0.00 | 0.20 | 0.20 | 58 | 1013.9 |
| 20260505183218 | 66 | 301 | 2.0 | 6.0 | 0.00 | 0.20 | 0.20 | 59 | 1013.7 |
| 20260505182714 | 66 | 205 | 6.0 | 8.0 | 0.00 | 0.20 | 0.20 | 59 | 1013.8 |
| 20260505182212 | 66 | 295 | 3.0 | 5.0 | 0.00 | 0.20 | 0.20 | 62 | 1014.0 |
| 20260505181708 | 64 | 294 | 6.0 | 6.0 | 0.00 | 0.20 | 0.20 | 62 | 1014.3 |
| 20260505181206 | 65 | 274 | 5.0 | 7.0 | 0.00 | 0.20 | 0.20 | 62 | 1014.3 |
| 20260505180702 | 65 | 344 | 0.0 | 2.0 | 0.00 | 0.20 | 0.20 | 61 | 1014.0 |
| 20260505180159 | 65 | 12 | 3.0 | 3.0 | 0.00 | 0.20 | 0.20 | 61 | 1014.1 |
| 20260505175654 | 65 | 276 | 3.0 | 7.0 | 0.00 | 0.20 | 0.20 | 61 | 1014.3 |
| 20260505175151 | 65 | 234 | 3.0 | 6.0 | 0.00 | 0.20 | 0.20 | 64 | 1014.1 |
| 20260505174648 | 64 | 284 | 3.0 | 3.0 | 0.00 | 0.20 | 0.20 | 64 | 1014.1 |
| 20260505174144 | 64 | 293 | 2.0 | 3.0 | 0.00 | 0.20 | 0.20 | 64 | 1014.1 |
| 20260505173641 | 64 | 311 | 1.0 | 5.0 | 0.00 | 0.20 | 0.20 | 66 | 1014.1 |
| 20260505173138 | 65 | 270 | 8.0 | 10.0 | 0.00 | 0.20 | 0.20 | 63 | 1014.1 |
| 20260505172635 | 65 | 36 | 3.0 | 3.0 | 0.00 | 0.20 | 0.20 | 62 | 1014.1 |
| 20260505172132 | 65 | 301 | 3.0 | 3.0 | 0.00 | 0.20 | 0.20 | 62 | 1014.4 |
| 20260505171626 | 65 | 351 | 0.0 | 1.0 | 0.00 | 0.20 | 0.20 | 63 | 1014.4 |
| 20260505171124 | 65 | 15 | 1.0 | 2.0 | 0.00 | 0.20 | 0.20 | 62 | 1014.5 |
| 20260505170621 | 64 | 331 | 0.0 | 2.0 | 0.00 | 0.20 | 0.20 | 62 | 1014.3 |
| 20260505170117 | 64 | 347 | 0.0 | 3.0 | 0.00 | 0.20 | 0.20 | 63 | 1014.3 |
| 20260505165612 | 63 | 233 | 4.0 | 5.0 | 0.00 | 0.20 | 0.20 | 64 | 1014.3 |
| 20260505165108 | 63 | 277 | 3.0 | 3.0 | 0.00 | 0.20 | 0.20 | 62 | 1014.3 |
| 20260505164604 | 63 | 289 | 3.0 | 5.0 | 0.00 | 0.20 | 0.20 | 64 | 1014.3 |
| 20260505164102 | 63 | 337 | 0.0 | 3.0 | 0.00 | 0.20 | 0.20 | 70 | 1014.3 |
| 20260505163600 | 64 | 330 | 1.0 | 2.0 | 0.00 | 0.20 | 0.20 | 70 | 1014.4 |
| 20260505163057 | 63 | 302 | 1.0 | 2.0 | 0.00 | 0.20 | 0.20 | 72 | 1014.0 |
| 20260505162555 | 62 | 325 | 1.0 | 2.0 | 0.00 | 0.20 | 0.20 | 76 | 1014.5 |
| 20260505162052 | 61 | 305 | 1.0 | 2.0 | 0.00 | 0.20 | 0.20 | 74 | 1014.4 |
| 20260505161549 | 61 | 302 | 2.0 | 2.0 | 0.00 | 0.20 | 0.20 | 75 | 1014.4 |
| 20260505161047 | 61 | 324 | 1.0 | 2.0 | 0.00 | 0.20 | 0.20 | 76 | 1014.4 |
| 20260505160544 | 61 | 273 | 3.0 | 3.0 | 0.00 | 0.20 | 0.20 | 75 | 1014.5 |
| 20260505153021 | 61 | 289 | 1.0 | 2.0 | 0.00 | 0.20 | 0.20 | 75 | 1014.0 |
| 20260505152518 | 61 | 285 | 1.0 | 2.0 | 0.00 | 0.20 | 0.20 | 78 | 1014.0 |
| 20260505152013 | 61 | 330 | 1.0 | 1.0 | 0.00 | 0.20 | 0.20 | 78 | 1014.0 |
| 20260505151508 | 60 | 311 | 0.0 | 2.0 | 0.00 | 0.20 | 0.20 | 78 | 1013.9 |
| 20260505151006 | 60 | 288 | 2.0 | 2.0 | 0.00 | 0.20 | 0.20 | 78 | 1014.1 |
| 20260505150502 | 60 | 300 | 2.0 | 3.0 | 0.00 | 0.20 | 0.20 | 78 | 1014.0 |
| 20260505140427 | 59 | 0 | 2.0 | 2.0 | 0.00 | 0.20 | 0.20 | 80 | 1013.6 |
| 20260505124841 | 57 | 27 | 1.0 | 1.0 | 0.00 | 0.20 | 0.20 | 92 | 1012.9 |
| 20260505124338 | 56 | 49 | 1.0 | 2.0 | 0.00 | 0.20 | 0.20 | 92 | 1013.2 |
| 20260505123834 | 56 | 6 | 0.0 | 0.0 | 0.00 | 0.20 | 0.20 | 92 | 1013.1 |
| 20260505123330 | 56 | 7 | 0.0 | 1.0 | 0.00 | 0.20 | 0.20 | 91 | 1012.9 |
| 20260505122826 | 57 | 8 | 0.0 | 0.0 | 0.00 | 0.20 | 0.20 | 91 | 1012.8 |
| 20260505122324 | 56 | 3 | 0.0 | 1.0 | 0.00 | 0.20 | 0.20 | 91 | 1012.8 |
| 20260505121820 | 56 | 27 | 1.0 | 2.0 | 0.00 | 0.20 | 0.20 | 92 | 1012.8 |
| 20260505121318 | 56 | 30 | 2.0 | 2.0 | 0.00 | 0.20 | 0.20 | 92 | 1012.3 |
| 20260505120814 | 56 | 2 | 0.0 | 0.0 | 0.07 | 0.20 | 0.20 | 92 | 1012.6 |
| 20260505120310 | 56 | 336 | 0.0 | 1.0 | 0.07 | 0.20 | 0.20 | 91 | 1012.7 |
| 20260505115808 | 56 | 25 | 0.0 | 2.0 | 0.00 | 0.19 | 0.19 | 90 | 1012.6 |
| 20260505115306 | 56 | 30 | 1.0 | 3.0 | 0.00 | 0.19 | 0.19 | 89 | 1012.6 |
| 20260505114804 | 56 | 7 | 0.0 | 1.0 | 0.00 | 0.19 | 0.19 | 88 | 1012.6 |
| 20260505114300 | 56 | 20 | 1.0 | 5.0 | 0.00 | 0.19 | 0.19 | 88 | 1012.5 |
| 20260505113756 | 56 | 39 | 3.0 | 5.0 | 0.00 | 0.19 | 0.19 | 89 | 1012.3 |
| 20260505113253 | 56 | 56 | 2.0 | 3.0 | 0.00 | 0.19 | 0.19 | 89 | 1013.1 |
| 20260505112748 | 56 | 61 | 1.0 | 3.0 | 0.00 | 0.19 | 0.19 | 90 | 1013.1 |
| 20260505112246 | 56 | 48 | 1.0 | 3.0 | 0.00 | 0.19 | 0.19 | 90 | 1012.9 |
| 20260505111741 | 56 | 42 | 2.0 | 3.0 | 0.05 | 0.19 | 0.19 | 89 | 1012.7 |
| 20260505111237 | 56 | 83 | 5.0 | 6.0 | 0.05 | 0.19 | 0.19 | 91 | 1012.7 |
| 20260505110733 | 56 | 43 | 2.0 | 5.0 | 0.00 | 0.18 | 0.18 | 91 | 1012.8 |
| 20260505110231 | 57 | 27 | 1.0 | 5.0 | 0.00 | 0.18 | 0.18 | 90 | 1012.8 |
| 20260505102207 | 56 | 74 | 4.0 | 6.0 | 0.07 | 0.17 | 0.17 | 93 | 1013.7 |
| 20260505101705 | 56 | 51 | 3.0 | 5.0 | 0.00 | 0.16 | 0.16 | 93 | 1013.9 |
| 20260505101201 | 56 | 48 | 3.0 | 5.0 | 0.00 | 0.16 | 0.16 | 93 | 1014.0 |
| 20260505100657 | 56 | 78 | 5.0 | 7.0 | 0.00 | 0.16 | 0.16 | 93 | 1014.0 |
| 20260505100154 | 56 | 43 | 3.0 | 3.0 | 0.00 | 0.16 | 0.16 | 93 | 1014.3 |
| 20260505095650 | 56 | 73 | 3.0 | 6.0 | 0.00 | 0.16 | 0.16 | 93 | 1014.4 |
| 20260505095148 | 56 | 36 | 2.0 | 5.0 | 0.00 | 0.16 | 0.16 | 94 | 1014.3 |
| 20260505094643 | 56 | 89 | 4.0 | 6.0 | 0.05 | 0.16 | 0.16 | 94 | 1014.3 |
| 20260505094140 | 56 | 120 | 3.0 | 5.0 | 0.12 | 0.16 | 0.16 | 94 | 1014.0 |
| 20260505093636 | 57 | 33 | 3.0 | 6.0 | 0.12 | 0.15 | 0.15 | 94 | 1014.0 |
| 20260505093134 | 57 | 87 | 5.0 | 10.0 | 0.05 | 0.14 | 0.14 | 94 | 1014.3 |
| 20260505092630 | 57 | 72 | 7.0 | 9.0 | 0.07 | 0.13 | 0.13 | 94 | 1014.8 |
| 20260505092129 | 57 | 83 | 3.0 | 9.0 | 0.07 | 0.13 | 0.13 | 93 | 1014.7 |
| 20260505091625 | 57 | 85 | 9.0 | 11.0 | 0.00 | 0.12 | 0.12 | 93 | 1014.5 |
| 20260505091124 | 57 | 109 | 7.0 | 10.0 | 0.05 | 0.12 | 0.12 | 93 | 1014.6 |
| 20260505090621 | 57 | 85 | 9.0 | 15.0 | 0.05 | 0.12 | 0.12 | 93 | 1014.4 |
| 20260505090119 | 57 | 108 | 6.0 | 11.0 | 0.00 | 0.11 | 0.11 | 92 | 1015.0 |
| 20260505085616 | 57 | 93 | 6.0 | 8.0 | 0.00 | 0.11 | 0.11 | 92 | 1014.7 |
| 20260505085115 | 57 | 70 | 7.0 | 8.0 | 0.00 | 0.11 | 0.11 | 92 | 1014.8 |
| 20260505084612 | 57 | 58 | 3.0 | 6.0 | 0.07 | 0.11 | 0.11 | 92 | 1015.0 |
| 20260505084110 | 57 | 82 | 3.0 | 7.0 | 0.07 | 0.11 | 0.11 | 92 | 1015.3 |
| 20260505083608 | 57 | 71 | 3.0 | 6.0 | 0.00 | 0.10 | 0.10 | 92 | 1015.6 |
| 20260505083104 | 57 | 47 | 3.0 | 5.0 | 0.05 | 0.10 | 0.10 | 92 | 1015.9 |
| 20260505082559 | 57 | 44 | 1.0 | 3.0 | 0.05 | 0.10 | 0.10 | 92 | 1015.9 |
| 20260505082057 | 57 | 70 | 1.0 | 3.0 | 0.00 | 0.09 | 0.09 | 92 | 1015.8 |
| 20260505081553 | 57 | 56 | 3.0 | 5.0 | 0.07 | 0.09 | 0.09 | 92 | 1015.9 |
| 20260505081050 | 57 | 52 | 3.0 | 3.0 | 0.07 | 0.09 | 0.09 | 92 | 1016.0 |
| 20260505080546 | 57 | 52 | 1.0 | 3.0 | 0.05 | 0.08 | 0.08 | 92 | 1016.0 |
| 20260505080043 | 56 | 27 | 1.0 | 2.0 | 0.07 | 0.07 | 0.07 | 92 | 1016.5 |
| 20260505075539 | 57 | 73 | 2.0 | 2.0 | 0.07 | 0.06 | 0.06 | 93 | 1016.4 |
| 20260505075036 | 57 | 44 | 1.0 | 2.0 | 0.07 | 0.06 | 0.06 | 93 | 1016.6 |
| 20260505074533 | 57 | 4 | 0.0 | 0.0 | 0.05 | 0.05 | 0.05 | 93 | 1017.0 |
| 20260505074030 | 57 | 12 | 0.0 | 1.0 | 0.12 | 0.05 | 0.05 | 93 | 1016.9 |
| 20260505073527 | 57 | 34 | 2.0 | 3.0 | 0.07 | 0.04 | 0.04 | 93 | 1017.0 |
| 20260505073026 | 57 | 14 | 3.0 | 3.0 | 0.05 | 0.03 | 0.03 | 93 | 1016.6 |
| 20260505072521 | 57 | 17 | 3.0 | 6.0 | 0.05 | 0.03 | 0.03 | 93 | 1016.8 |
| 20260505072018 | 58 | 4 | 3.0 | 3.0 | 0.07 | 0.02 | 0.02 | 93 | 1016.8 |
| 20260505071513 | 58 | 5 | 0.0 | 0.0 | 0.07 | 0.02 | 0.02 | 93 | 1016.5 |
| 20260505071012 | 57 | 20 | 1.0 | 2.0 | 0.05 | 0.01 | 0.01 | 93 | 1016.5 |
| 20260505070509 | 58 | 1 | 0.0 | 0.0 | 0.12 | 0.01 | 0.01 | 93 | 1016.6 |
| 20260505070005 | 58 | 4 | 0.0 | 0.0 | 0.12 | 0.53 | 0.53 | 93 | 1016.8 |
| 20260505065501 | 58 | 1 | 0.0 | 0.0 | 0.05 | 0.52 | 0.52 | 93 | 1016.2 |
| 20260505064957 | 58 | 356 | 0.0 | 0.0 | 0.00 | 0.51 | 0.51 | 92 | 1016.4 |
| 20260505064454 | 58 | 7 | 0.0 | 0.0 | 0.07 | 0.51 | 0.51 | 92 | 1016.4 |
| 20260505063953 | 57 | 6 | 1.0 | 1.0 | 0.07 | 0.51 | 0.51 | 91 | 1016.2 |
| 20260505063449 | 57 | 9 | 1.0 | 2.0 | 0.12 | 0.50 | 0.50 | 91 | 1016.2 |
| 20260505062945 | 57 | 25 | 3.0 | 3.0 | 0.24 | 0.50 | 0.50 | 91 | 1016.3 |
| 20260505062442 | 57 | 19 | 2.0 | 3.0 | 0.24 | 0.48 | 0.48 | 91 | 1016.3 |
| 20260505061939 | 57 | 40 | 3.0 | 3.0 | 0.24 | 0.46 | 0.46 | 92 | 1016.5 |
| 20260505061437 | 57 | 12 | 1.0 | 2.0 | 0.24 | 0.44 | 0.44 | 91 | 1016.3 |
| 20260505060935 | 57 | 354 | 0.0 | 1.0 | 0.24 | 0.42 | 0.42 | 91 | 1016.4 |
| 20260505060432 | 57 | 13 | 2.0 | 3.0 | 0.19 | 0.40 | 0.40 | 91 | 1016.4 |
| 20260505055928 | 57 | 3 | 0.0 | 1.0 | 0.12 | 0.38 | 0.38 | 91 | 1016.5 |
| 20260505055424 | 57 | 35 | 1.0 | 2.0 | 0.17 | 0.37 | 0.37 | 91 | 1016.5 |
| 20260505054921 | 57 | 39 | 1.0 | 3.0 | 0.12 | 0.35 | 0.35 | 90 | 1016.2 |
| 20260505054418 | 57 | 35 | 1.0 | 2.0 | 0.19 | 0.34 | 0.34 | 90 | 1016.2 |
| 20260505053916 | 57 | 25 | 2.0 | 3.0 | 0.19 | 0.33 | 0.33 | 90 | 1016.2 |
| 20260505053413 | 58 | 2 | 2.0 | 2.0 | 0.19 | 0.31 | 0.31 | 90 | 1016.4 |
| 20260505052910 | 58 | 3 | 1.0 | 1.0 | 0.17 | 0.30 | 0.30 | 90 | 1016.5 |
| 20260505052406 | 58 | 20 | 2.0 | 2.0 | 0.05 | 0.28 | 0.28 | 89 | 1016.4 |
| 20260505051904 | 58 | 338 | 0.0 | 1.0 | 0.07 | 0.27 | 0.27 | 88 | 1016.3 |
| 20260505051401 | 58 | 18 | 2.0 | 2.0 | 0.07 | 0.27 | 0.27 | 87 | 1016.1 |
| 20260505050859 | 58 | 21 | 1.0 | 2.0 | 0.00 | 0.26 | 0.26 | 87 | 1016.1 |
| 20260505050357 | 58 | 28 | 1.0 | 1.0 | 0.05 | 0.26 | 0.26 | 85 | 1016.1 |
| 20260505041325 | 60 | 11 | 0.0 | 2.0 | 0.07 | 0.23 | 0.23 | 86 | 1016.3 |
| 20260505040821 | 59 | 339 | 1.0 | 2.0 | 0.00 | 0.22 | 0.22 | 84 | 1016.5 |
| 20260505040319 | 60 | 356 | 1.0 | 2.0 | 0.00 | 0.22 | 0.22 | 82 | 1016.6 |
| 20260505035816 | 60 | 7 | 1.0 | 2.0 | 0.00 | 0.22 | 0.22 | 80 | 1016.3 |
| 20260505035311 | 61 | 4 | 1.0 | 2.0 | 0.00 | 0.22 | 0.22 | 76 | 1016.1 |
| 20260505034809 | 61 | 288 | 2.0 | 2.0 | 0.00 | 0.22 | 0.22 | 69 | 1015.9 |
| 20260505034305 | 60 | 192 | 4.0 | 6.0 | 0.00 | 0.22 | 0.22 | 68 | 1015.8 |
| 20260505033803 | 58 | 88 | 5.0 | 9.0 | 0.00 | 0.22 | 0.22 | 77 | 1015.6 |
| 20260505033300 | 57 | 40 | 2.0 | 3.0 | 0.00 | 0.22 | 0.22 | 84 | 1015.3 |
| 20260505032758 | 57 | 259 | 2.0 | 3.0 | 0.00 | 0.22 | 0.22 | 84 | 1015.2 |
| 20260505032254 | 57 | 19 | 2.0 | 5.0 | 0.00 | 0.22 | 0.22 | 83 | 1015.1 |
| 20260505031751 | 57 | 86 | 6.0 | 9.0 | 0.05 | 0.22 | 0.22 | 84 | 1015.2 |
| 20260505031247 | 57 | 65 | 7.0 | 13.0 | 0.05 | 0.22 | 0.22 | 82 | 1015.3 |
| 20260505030744 | 56 | 89 | 8.0 | 11.0 | 0.00 | 0.21 | 0.21 | 81 | 1015.7 |
| 20260505030240 | 56 | 76 | 7.0 | 10.0 | 0.07 | 0.21 | 0.21 | 80 | 1016.3 |
| 20260505025736 | 55 | 90 | 7.0 | 10.0 | 0.07 | 0.21 | 0.21 | 82 | 1016.1 |
| 20260505025234 | 55 | 125 | 5.0 | 7.0 | 0.07 | 0.20 | 0.20 | 86 | 1016.3 |
| 20260505024732 | 55 | 81 | 4.0 | 6.0 | 0.00 | 0.19 | 0.19 | 84 | 1016.5 |
| 20260505024229 | 55 | 76 | 3.0 | 6.0 | 0.05 | 0.19 | 0.19 | 83 | 1016.4 |
| 20260505023727 | 55 | 58 | 4.0 | 7.0 | 0.05 | 0.19 | 0.19 | 84 | 1016.2 |
| 20260505023224 | 55 | 33 | 3.0 | 6.0 | 0.07 | 0.18 | 0.18 | 85 | 1016.4 |
| 20260505022721 | 56 | 78 | 2.0 | 6.0 | 0.12 | 0.18 | 0.18 | 87 | 1016.4 |
| 20260505022218 | 55 | 25 | 2.0 | 3.0 | 0.12 | 0.17 | 0.17 | 85 | 1016.4 |
| 20260505021714 | 55 | 41 | 2.0 | 3.0 | 0.12 | 0.16 | 0.16 | 84 | 1016.5 |
| 20260505021212 | 56 | 49 | 2.0 | 3.0 | 0.12 | 0.15 | 0.15 | 84 | 1016.2 |
| 20260505020707 | 56 | 29 | 1.0 | 2.0 | 0.12 | 0.14 | 0.14 | 82 | 1016.2 |
| 20260505020203 | 57 | 353 | 1.0 | 1.0 | 0.12 | 0.13 | 0.13 | 76 | 1016.3 |
| 20260505015701 | 58 | 332 | 2.0 | 3.0 | 0.12 | 0.12 | 0.12 | 71 | 1016.3 |
| 20260505015157 | 58 | 27 | 1.0 | 2.0 | 0.07 | 0.10 | 0.10 | 73 | 1016.3 |
| 20260505014654 | 58 | 348 | 3.0 | 5.0 | 0.14 | 0.10 | 0.10 | 73 | 1016.1 |
| 20260505014151 | 58 | 15 | 2.0 | 3.0 | 0.07 | 0.09 | 0.09 | 74 | 1016.1 |
| 20260505013648 | 59 | 22 | 2.0 | 5.0 | 0.05 | 0.08 | 0.08 | 74 | 1016.0 |
| 20260505013145 | 60 | 284 | 3.0 | 7.0 | 0.12 | 0.08 | 0.08 | 69 | 1016.1 |
| 20260505012644 | 60 | 328 | 1.0 | 8.0 | 0.07 | 0.07 | 0.07 | 69 | 1015.7 |
| 20260505012140 | 59 | 23 | 6.0 | 9.0 | 0.05 | 0.06 | 0.06 | 72 | 1015.8 |
| 20260505011636 | 60 | 15 | 2.0 | 2.0 | 0.05 | 0.06 | 0.06 | 75 | 1015.4 |
| 20260505011133 | 60 | 10 | 2.0 | 2.0 | 0.00 | 0.05 | 0.05 | 76 | 1015.2 |
| 20260505010628 | 61 | 20 | 1.0 | 2.0 | 0.07 | 0.05 | 0.05 | 75 | 1015.3 |
| 20260505010125 | 63 | 345 | 1.0 | 2.0 | 0.07 | 0.05 | 0.05 | 68 | 1015.4 |
| 20260505005621 | 63 | 342 | 3.0 | 3.0 | 0.00 | 0.04 | 0.04 | 65 | 1015.3 |
| 20260505005118 | 64 | 283 | 3.0 | 3.0 | 0.00 | 0.04 | 0.04 | 63 | 1015.3 |
| 20260505004615 | 63 | 319 | 1.0 | 2.0 | 0.05 | 0.04 | 0.04 | 61 | 1015.3 |
| 20260505004112 | 64 | 329 | 0.0 | 1.0 | 0.05 | 0.04 | 0.04 | 61 | 1015.3 |
| 20260505003609 | 64 | 276 | 3.0 | 5.0 | 0.07 | 0.03 | 0.03 | 55 | 1015.2 |
| 20260505003107 | 65 | 22 | 1.0 | 1.0 | 0.07 | 0.03 | 0.03 | 65 | 1015.6 |